Theta_e
307 306 306 306 306 308 298 289 282 297 298 284 289 286 289 294 291 295 292 291 290 289 290 288 287 287 289 288 291 284 287 286 282 285 292 293 292 287 287 278 279 273 274 277
307 306 305 306 306 306 293 286 285 295 294 282 286 289 290 293 293 294 293 290 293 294 288 286 288 289 295 296 294 290 291 285 279 282 288 291 289 289 288 285 280 271 273 278
306 305 305 305 306 306 293 285 278 284 288 292 287 286 287 287 295 295 295 293 292 290 288 290 287 288 293 295 295 299 295 286 279 276 281 287 286 287 287 283 274 276 277 280
306 305 305 305 306 305 291 283 284 285 281 283 286 288 286 286 287 293 293 291 291 288 285 286 286 288 290 293 295 294 291 283 284 286 287 288 287 287 286 277 283 279 281 283
306 305 304 304 305 302 287 280 279 283 282 287 287 286 285 285 287 289 290 290 291 289 286 286 285 288 287 286 290 288 289 284 285 282 287 287 284 288 287 286 287 285 284 284
306 305 304 304 304 299 286 286 286 286 283 280 281 283 284 284 288 291 294 293 292 288 290 292 292 292 291 289 287 286 285 284 282 278 285 285 282 286 287 287 289 288 283 287
305 304 304 303 303 300 289 288 285 279 277 279 280 282 284 285 287 288 292 295 291 293 296 295 292 291 290 289 289 289 285 284 282 277 279 273 283 288 290 288 288 289 289 289
305 304 303 303 303 303 292 291 286 281 276 279 281 281 282 285 288 289 291 296 294 295 292 288 285 286 285 286 288 288 287 284 280 276 275 280 283 286 287 286 286 290 290 291
304 303 303 302 303 303 293 290 291 286 282 278 282 280 281 282 284 283 291 294 294 294 289 285 280 276 280 280 283 288 288 285 280 277 275 274 284 288 291 292 282 291 291 292
303 303 303 302 303 303 294 291 293 291 283 282 283 278 279 285 285 282 286 288 288 292 285 281 278 280 283 278 278 281 281 281 276 278 275 279 288 289 293 284 282 291 294 294
303 303 303 302 303 303 294 290 293 288 285 284 286 287 283 284 283 280 285 285 291 289 284 282 281 280 281 280 281 279 280 278 277 279 276 273 289 290 288 290 293 297 295 295
303 303 302 302 303 302 297 287 293 294 286 285 289 290 291 289 288 285 285 287 286 292 289 286 282 282 281 280 279 284 281 283 281 282 282 288 289 290 291 293 295 294 295 295
302 302 302 303 303 303 301 293 292 289 287 285 283 284 289 292 291 293 283 288 291 289 291 291 286 282 283 279 282 280 283 286 283 285 286 287 292 293 294 295 294 294 294 294
301 302 303 303 302 302 301 295 294 293 289 281 282 290 288 292 292 292 291 289 293 291 290 292 286 284 286 283 284 283 285 287 286 285 288 290 291 292 293 294 294 294 294 293
301 302 302 302 302 303 300 297 293 294 288 281 284 287 289 290 289 289 290 289 289 288 286 290 289 287 288 286 286 284 287 286 285 284 289 289 290 292 294 293 293 293 293 292
302 301 301 302 302 302 294 284 293 296 296 286 278 285 286 290 289 287 287 289 287 289 288 291 293 293 291 283 281 288 289 290 291 290 292 292 292 292 292 292 292 293 291 291
302 301 302 302 301 297 290 283 292 298 295 286 279 280 285 291 291 286 288 289 291 290 290 290 289 291 294 288 281 288 290 291 292 293 293 291 290 290 291 292 292 292 291 291
302 302 301 300 299 299 293 296 299 298 291 287 279 277 280 292 288 286 290 289 292 292 292 293 292 293 293 287 287 289 290 290 290 290 291 291 291 291 290 290 291 290 291 291
301 300 299 293 292 289 292 298 299 297 290 281 282 278 275 289 287 289 292 293 287 291 289 290 291 287 285 288 287 288 288 288 288 288 290 290 290 290 291 290 290 288 287 290
298 291 286 282 288 297 296 293 287 287 287 287 280 284 280 286 287 287 288 291 288 284 289 293 288 287 288 285 284 285 286 289 289 287 287 287 288 288 289 289 289 289 289 288
287 283 283 287 294 286 288 283 281 281 278 283 281 284 281 288 283 284 290 286 286 282 283 286 282 282 282 283 283 285 288 289 289 289 289 288 288 288 288 288 289 289 289 288
289 287 289 289 287 284 279 274 281 280 274 286 283 284 286 287 290 285 287 285 285 280 289 284 280 282 282 283 285 286 287 287 286 287 286 287 287 287 287 288 287 287 287 288
288 286 284 283 279 274 269 271 270 270 279 284 283 280 285 287 289 286 285 283 282 288 283 281 282 281 282 282 284 285 286 287 286 286 287 286 286 287 286 285 285 285 285 286
280 274 268 272 270 277 279 276 280 281 282 283 283 281 282 286 284 286 283 286 285 280 278 279 277 281 284 284 284 286 285 285 285 284 285 285 285 285 285 284 284 283 283 284
273 275 267 267 275 278 283 284 280 280 285 283 281 282 283 282 282 284 284 282 279 281 280 284 286 286 285 285 286 285 284 283 282 283 282 282 282 282 279 283 279 279 280 280
273 274 275 273 269 269 269 267 271 278 283 281 282 280 280 282 283 282 282 280 277 282 284 285 285 285 285 285 285 283 283 282 281 281 280 279 278 278 276 275 275 275 275 275
279 278 281 278 276 277 271 273 276 284 280 277 278 277 279 280 280 281 284 281 283 283 282 283 284 285 284 283 283 283 281 280 278 278 278 277 277 277 276 275 276 275 276 274
Wind_Speed
20 22 25 28 30 27 7 2 3 3 2 5 2 3 8 6 7 2 7 3 5 4 1 3 6 1 3 17 7 15 13 5 8 10 2 7 2 6 3 5 4 0 3 7
18 21 24 27 29 26 1 3 2 4 4 5 4 7 6 4 7 6 4 4 4 5 5 1 3 4 2 14 10 16 12 3 5 5 3 3 5 5 3 4 4 5 6 6
16 19 23 26 29 27 4 3 5 6 5 1 2 5 6 9 7 5 8 4 5 6 7 6 5 6 3 2 7 3 5 2 5 7 4 7 6 7 6 5 4 4 5 3
15 18 21 24 27 25 4 5 2 2 4 4 6 7 8 7 9 8 9 6 9 5 5 6 6 5 6 4 6 5 1 3 3 6 3 6 10 11 9 5 5 6 3 7
13 16 19 22 25 17 5 3 3 4 3 8 6 7 6 9 7 5 6 9 15 6 4 1 4 5 5 3 7 5 4 4 2 6 3 5 5 9 7 3 3 3 1 4
10 13 16 18 20 12 4 2 2 2 5 6 3 2 6 7 14 7 10 12 11 4 4 5 8 7 6 6 3 5 2 4 2 2 3 6 2 10 10 4 4 4 4 5
8 11 13 15 17 10 2 2 1 3 4 3 2 4 9 9 12 10 13 14 3 4 8 8 3 4 1 5 5 3 2 3 2 3 3 0 2 1 7 7 6 5 3 2
6 9 11 13 14 14 3 2 3 2 4 3 5 8 6 8 8 7 7 6 3 11 5 4 3 3 4 3 4 6 3 3 3 4 2 3 1 2 6 6 6 6 6 5
3 7 9 10 12 13 3 1 1 2 3 3 3 5 5 4 8 7 5 8 10 4 2 3 1 0 2 3 5 4 4 5 5 2 3 1 0 1 2 4 3 6 7 6
2 4 7 9 10 10 3 2 1 1 2 4 3 3 2 4 3 4 7 9 9 4 3 3 2 2 2 2 3 3 3 3 3 1 2 4 2 1 2 3 6 3 6 6
4 4 6 8 10 11 4 2 2 2 3 7 5 3 3 3 1 3 7 8 1 3 4 2 2 1 2 1 3 2 0 2 0 1 3 2 3 3 2 4 2 5 5 4
4 4 6 7 8 9 4 0 2 1 3 7 4 12 16 13 16 7 4 5 5 4 3 2 2 2 2 0 1 4 1 2 2 4 4 2 0 1 2 1 3 2 4 2
3 3 5 8 9 9 8 2 2 1 3 5 2 5 4 3 11 10 3 3 5 3 5 3 2 2 2 1 2 2 3 1 1 2 0 2 3 3 4 4 4 4 4 3
2 3 6 9 10 10 9 2 1 2 2 4 6 2 7 3 4 9 11 4 1 5 6 3 1 2 1 2 3 2 4 2 1 2 4 4 3 3 3 5 6 6 5 3
1 3 6 9 10 12 5 1 1 2 2 3 6 8 5 5 5 8 10 9 4 1 4 3 2 2 2 1 1 3 3 4 4 4 3 2 2 2 2 5 4 4 3 2
2 3 6 8 10 9 2 4 2 1 2 4 5 4 6 6 5 6 6 6 3 3 3 3 3 3 0 1 2 4 3 3 4 5 3 2 5 4 2 4 3 2 2 2
4 7 10 12 10 2 2 4 4 4 1 2 5 5 4 7 2 1 2 5 2 3 4 3 3 3 4 2 4 3 4 2 4 4 6 3 3 3 2 4 3 2 2 3
7 11 11 6 3 5 1 0 5 3 1 1 3 5 5 3 4 2 3 3 3 5 3 2 2 3 2 4 5 3 2 5 5 5 5 2 4 5 4 3 2 2 3 3
10 8 2 4 4 2 1 10 6 0 0 1 1 2 4 4 2 4 3 3 3 3 3 3 3 3 6 5 4 3 1 1 4 2 4 4 4 4 3 3 2 2 2 3
6 6 4 3 1 6 7 1 1 1 1 1 2 2 4 2 1 3 2 4 3 3 4 2 4 5 1 3 3 4 4 3 1 3 2 2 3 2 2 3 2 1 2 3
4 3 1 3 5 4 1 2 1 2 3 3 3 3 3 3 3 3 3 1 2 3 3 3 3 4 2 4 4 3 4 4 5 4 3 4 2 2 3 3 4 4 4 4
4 3 0 1 2 1 1 2 2 2 3 2 3 4 4 4 3 4 3 3 1 3 2 2 3 2 2 4 5 5 5 6 7 6 5 5 4 4 3 3 4 5 6 6
3 3 3 2 2 3 3 3 6 4 2 2 5 7 3 3 4 4 3 4 3 3 2 3 3 2 3 5 4 4 5 6 6 5 5 5 5 5 5 4 4 5 5 6
4 4 4 4 3 4 3 2 3 4 4 6 8 4 4 2 4 3 4 2 2 2 3 5 2 4 4 4 4 5 4 4 4 3 3 4 4 4 4 5 5 4 5 6
3 4 3 4 4 3 2 3 2 4 4 4 6 4 4 3 5 3 2 3 3 4 2 1 2 3 5 5 4 5 4 3 2 1 2 3 3 3 3 4 4 5 5 5
4 1 2 3 2 4 2 1 3 3 4 4 3 4 4 6 3 3 4 3 2 1 2 2 2 3 4 5 5 4 3 3 3 3 2 2 3 2 1 2 4 5 3 4
1 3 4 3 4 5 3 3 3 2 3 3 3 4 3 5 4 2 3 4 2 3 3 3 3 3 5 6 5 4 3 3 3 2 3 2 2 2 4 5 5 5 4 3
Wind_Direction
357 354 352 349 354 350 39 19 52 312 113 44 357 351 310 285 286 180 257 265 248 268 89 17 224 209 199 169 163 183 196 256 146 166 150 146 184 184 232 127 203 306 141 272
357 356 354 352 354 358 329 38 276 319 65 57 348 318 302 317 321 299 311 298 317 313 3 71 11 352 347 154 171 174 173 205 111 106 107 149 188 211 198 112 86 204 135 257
358 359 0 357 352 356 76 62 18 338 12 77 357 334 334 332 309 301 337 339 14 345 15 12 17 347 323 90 152 218 135 134 162 177 141 127 187 165 172 122 118 169 216 275
6 5 5 1 357 357 72 27 52 177 337 335 336 352 6 336 4 340 323 0 7 331 357 359 11 339 330 348 37 166 133 97 60 38 124 155 172 171 169 144 163 140 252 206
17 9 8 7 7 11 73 81 27 343 282 299 321 9 4 334 350 293 318 351 334 11 52 49 308 3 11 0 324 33 12 129 95 42 66 154 156 175 156 129 142 234 259 235
24 18 15 14 18 27 59 324 330 324 311 336 7 351 340 314 312 282 291 323 320 355 327 275 244 214 261 248 348 349 64 133 82 17 50 86 127 199 184 182 184 162 184 236
23 27 21 18 21 49 110 258 109 54 295 357 350 306 310 326 311 284 291 301 309 317 318 282 247 210 271 35 18 27 96 110 92 133 39 181 270 29 176 174 190 209 222 203
17 30 28 18 18 24 52 324 51 47 305 267 318 325 297 317 328 301 289 316 352 303 306 10 356 333 0 341 358 9 40 108 93 131 149 291 256 206 152 162 237 196 172 137
31 30 26 16 11 14 63 321 107 75 315 277 302 321 318 327 337 322 298 326 313 323 66 42 27 300 303 341 338 6 59 71 109 102 113 182 282 143 171 114 288 179 148 155
99 34 18 11 3 9 87 285 299 249 279 270 40 262 265 322 336 288 291 345 328 349 33 61 64 304 303 356 4 352 3 358 102 59 116 293 266 181 261 168 240 135 139 147
134 60 10 6 1 359 97 281 325 59 278 273 235 229 246 327 291 272 338 323 237 321 41 32 303 36 323 342 323 341 166 87 327 81 74 327 157 59 178 217 67 111 118 132
129 56 8 353 352 347 95 42 283 158 212 251 208 264 262 237 243 255 239 303 308 336 319 32 296 337 16 88 306 342 341 180 224 167 220 253 41 221 33 100 102 53 102 88
106 43 10 354 344 341 352 240 247 70 269 282 353 272 297 228 218 193 194 245 351 8 328 302 284 296 122 314 258 304 306 177 139 47 330 109 58 40 48 48 74 67 74 85
74 16 10 352 342 334 332 223 212 203 275 291 283 302 282 250 154 175 210 245 166 339 320 292 266 264 135 249 263 194 217 38 159 316 21 72 42 50 93 74 67 62 54 63
64 351 353 337 330 325 322 220 278 248 220 281 283 297 263 307 233 225 208 209 228 338 305 276 249 266 351 313 360 262 193 191 160 223 216 160 200 130 71 83 69 59 57 41
315 320 331 323 320 347 28 16 356 27 147 285 312 309 300 307 274 215 189 177 157 173 243 244 278 263 100 322 261 267 243 219 177 180 166 123 119 91 67 104 70 26 34 4
322 325 323 315 310 92 150 185 232 235 136 292 309 307 292 324 285 44 107 165 164 190 250 237 240 262 172 245 227 279 328 134 64 87 111 92 188 188 125 108 78 48 57 28
328 328 328 342 88 104 66 231 327 151 239 111 327 286 332 21 312 268 182 151 201 197 270 265 274 325 236 253 243 253 76 92 56 37 36 48 111 122 111 69 23 48 35 12
332 331 130 61 43 43 308 310 304 283 46 86 250 297 309 347 268 274 218 167 193 234 222 232 157 214 227 229 215 160 125 147 163 77 63 66 85 74 23 1 22 25 353 1
49 51 50 44 269 313 329 202 214 255 167 219 247 207 261 264 260 283 241 200 215 205 213 161 211 240 109 71 73 106 103 70 57 151 155 132 105 35 344 339 358 12 323 313
46 46 63 263 327 42 309 306 322 303 276 196 230 236 275 230 227 270 264 264 192 221 223 201 247 266 201 140 110 94 82 81 60 63 65 50 62 28 337 340 346 348 351 340
164 145 109 292 30 110 251 279 260 169 254 322 314 323 283 277 235 240 248 254 187 226 129 194 256 248 107 125 100 68 59 74 65 52 50 34 41 24 3 1 3 350 333 329
58 65 60 17 310 339 105 320 313 345 313 311 315 318 277 291 235 255 256 215 221 117 175 235 229 157 147 143 116 87 71 76 77 63 59 54 49 46 39 22 8 351 349 356
74 62 350 131 290 226 208 177 289 270 284 299 306 275 264 247 246 240 247 189 119 208 228 234 236 214 172 148 146 127 119 107 101 84 78 70 51 40 41 36 10 358 3 351
94 90 223 217 241 264 234 299 305 257 291 300 301 258 241 260 256 223 236 195 217 222 252 13 344 157 154 151 136 137 152 156 147 108 80 58 35 32 7 33 10 9 359 354
80 219 234 253 40 301 3 247 257 270 323 298 228 266 259 240 266 243 223 190 201 16 350 323 284 161 156 146 129 115 122 140 125 95 85 70 35 10 317 359 13 357 359 359
207 250 250 232 261 250 219 169 238 283 11 317 314 278 297 296 261 261 14 34 355 324 314 306 287 181 148 139 149 146 191 119 101 98 66 58 13 69 47 27 347 340 342 339